DW5435 Weather Reports


Display with metric or nautical units.
time (UTC)temp
F
wind
direction
speed
MPH
gust
MPH
rain 1hr
in
rain 24hr
in
rain mn
in
humidity
%
barometer
mb
20260508012017 64 0.0 0.0 0.00 0.00 0.00 81 1013.6
20260508011016 65 0.0 0.0 0.00 0.00 0.00 81 1013.5
20260508010017 65 0.0 0.0 0.00 0.00 0.00 81 1013.4
20260508005016 65 0.0 0.0 0.00 0.00 0.00 81 1013.3
20260508004017 66 0.0 0.0 0.00 0.00 0.00 80 1013.1
20260508003016 66 0.0 0.0 0.00 0.00 0.00 80 1013.0
20260508002016 66 0.0 0.0 0.00 0.00 0.00 80 1012.8
20260508001017 67 0.0 0.0 0.00 0.00 0.00 80 1012.8
20260508000016 67 0.0 0.0 0.00 0.00 0.00 82 1012.8
20260507235016 67 0.0 0.0 0.00 0.00 0.00 84 1012.7
20260507234016 68 0.0 0.0 0.00 0.00 0.00 83 1012.5
20260507233036 68 0.0 0.0 0.00 0.00 0.00 80 1012.3
20260507232016 68 0.0 0.0 0.00 0.00 0.00 81 1012.3
20260507231036 68 0.0 0.0 0.00 0.00 0.00 83 1012.2
20260507230057 68 0.0 0.0 0.00 0.00 0.00 82 1012.2
20260507225016 68 0.0 0.0 0.00 0.00 0.00 82 1012.0
20260507224017 68 0.0 0.0 0.00 0.00 0.00 85 1011.8
20260507223017 69 0.0 0.0 0.00 0.00 0.00 87 1011.8
20260507222016 69 0.0 0.0 0.00 0.00 0.00 85 1011.8
20260507221016 69 0.0 0.0 0.00 0.00 0.00 86 1011.5
20260507220017 69 0.0 0.0 0.00 0.00 0.00 85 1011.4
20260507215017 69 0.0 0.0 0.00 0.00 0.00 84 1011.4
20260507214016 69 0.0 0.0 0.00 0.00 0.00 83 1011.4
20260507213037 69 0.0 0.0 0.00 0.00 0.00 84 1011.3
20260507212016 69 0.0 0.0 0.00 0.00 0.00 84 1011.3
20260507211036 69 0.0 0.0 0.00 0.00 0.00 84 1011.1
20260507210016 69 0.0 0.0 0.00 0.00 0.00 85 1011.1
20260507205016 69 0.0 0.0 0.00 0.00 0.00 87 1011.1
20260507204017 69 0.0 0.0 0.00 0.00 0.00 89 1011.1
20260507203017 69 0.0 0.0 0.00 0.00 0.00 90 1011.0
20260507202016 69 0.0 0.0 0.00 0.00 0.00 91 1011.1
20260507201016 69 0.0 0.0 0.00 0.00 0.00 91 1011.0
20260507200036 68 0.0 0.0 0.00 0.00 0.00 91 1011.1
20260507195036 68 0.0 0.0 0.00 0.00 0.00 91 1011.2
20260507194016 68 0.0 0.0 0.00 0.00 0.00 91 1011.3
20260507193016 68 0.0 0.0 0.00 0.00 0.00 92 1011.3
20260507192016 68 0.0 0.0 0.00 0.00 0.00 92 1011.4
20260507191016 68 0.0 0.0 0.00 0.00 0.00 93 1011.4
20260507190016 68 0.0 0.0 0.00 0.00 0.00 92 1011.4
20260507185036 68 0.0 0.0 0.00 0.00 0.00 92 1011.2
20260507184016 68 0.0 0.0 0.00 0.00 0.00 93 1011.3
20260507183016 68 0.0 0.0 0.00 0.00 0.00 93 1011.3
20260507182017 68 0.0 0.0 0.00 0.00 0.00 94 1011.2
20260507181016 68 0.0 0.0 0.00 0.00 0.00 94 1011.2
20260507180016 68 0.0 0.0 0.00 0.00 0.00 94 1011.3
20260507175037 68 0.0 0.0 0.00 0.00 0.00 94 1011.3
20260507174036 69 0.0 0.0 0.00 0.00 0.00 94 1011.2
20260507173016 69 0.0 0.0 0.00 0.00 0.00 95 1011.1
20260507172016 68 0.0 0.0 0.00 0.00 0.00 95 1011.2
20260507171016 68 0.0 0.0 0.00 0.00 0.00 95 1011.4
20260507170036 68 0.0 0.0 0.00 0.00 0.00 95 1011.4
20260507165016 68 0.0 0.0 0.00 0.00 0.00 94 1011.4
20260507164016 68 0.0 0.0 0.00 0.00 0.00 95 1011.5
20260507163016 68 0.0 0.0 0.00 0.00 0.00 95 1011.7
20260507162016 67 0.0 0.0 0.00 0.00 0.00 94 1011.5
20260507161016 67 0.0 0.0 0.00 0.00 0.00 95 1011.3
20260507160016 68 0.0 0.0 0.00 0.00 0.00 95 1011.4
20260507155016 67 0.0 0.0 0.00 0.00 0.00 95 1011.0
20260507154016 67 0.0 0.0 0.00 0.00 0.00 95 1011.0
20260507153016 66 0.0 0.0 0.00 0.00 0.00 95 1011.2
20260507152016 65 0.0 0.0 0.00 0.00 0.00 94 1011.0
20260507151016 65 0.0 0.0 0.00 0.00 0.00 94 1011.3
20260507150016 65 0.0 0.0 0.00 0.00 0.00 94 1011.4
20260507145016 65 0.0 0.0 0.00 0.00 0.00 94 1011.5
20260507144016 65 0.0 0.0 0.00 0.00 0.00 94 1011.2
20260507143016 64 0.0 0.0 0.00 0.00 0.00 94 1011.5
20260507142036 64 0.0 0.0 0.00 0.00 0.00 94 1011.3
20260507141016 64 0.0 0.0 0.00 0.00 0.00 94 1011.0
20260507140016 64 0.0 0.0 0.00 0.00 0.00 94 1011.9
20260507135016 64 0.0 0.0 0.00 0.00 0.00 94 1010.7
20260507134016 64 0.0 0.0 0.00 0.00 0.00 94 1010.3
20260507133016 64 0.0 0.0 0.00 0.00 0.00 94 1010.2
20260507132017 64 0.0 0.0 0.00 0.00 0.00 94 1010.9
20260507131016 65 0.0 0.0 0.00 0.00 0.00 94 1011.1
20260507130016 65 0.0 0.0 0.00 0.00 0.00 94 1011.2
20260507125016 65 0.0 0.0 0.00 0.00 0.00 94 1011.3
20260507124016 65 0.0 0.0 0.00 0.00 0.00 94 1010.9
20260507123016 66 0.0 0.0 0.00 0.00 0.00 94 1010.5
20260507122016 66 0.0 0.0 0.00 0.00 0.00 94 1010.3
20260507121056 66 0.0 0.0 0.00 0.00 0.00 94 1010.2
20260507120016 65 0.0 0.0 0.00 0.00 0.00 94 1009.9
20260507115016 65 0.0 0.0 0.00 0.00 0.00 94 1009.6
20260507114016 65 0.0 0.0 0.00 0.00 0.00 94 1009.5
20260507113016 65 0.0 0.0 0.00 0.00 0.00 94 1009.5
20260507112016 65 0.0 0.0 0.00 0.00 0.00 94 1009.2
20260507111016 64 0.0 0.0 0.00 0.00 0.00 93 1009.0
20260507110016 64 0.0 0.0 0.00 0.00 0.00 93 1009.1
20260507105016 64 0.0 0.0 0.00 0.00 0.00 93 1009.2
20260507104016 64 0.0 0.0 0.00 0.00 0.00 93 1009.4
20260507103016 64 0.0 0.0 0.00 0.00 0.00 93 1009.5
20260507102016 64 0.0 0.0 0.00 0.00 0.00 93 1009.5
20260507101016 64 0.0 0.0 0.00 0.00 0.00 93 1009.6
20260507100016 64 0.0 0.0 0.00 0.00 0.00 93 1009.7
20260507095016 64 0.0 0.0 0.00 0.00 0.00 93 1010.0
20260507094016 64 0.0 0.0 0.00 0.00 0.00 93 1010.4
20260507093016 64 0.0 0.0 0.00 0.00 0.00 93 1010.5
20260507092016 64 0.0 0.0 0.00 0.00 0.00 93 1010.5
20260507091036 64 0.0 0.0 0.00 0.00 0.00 93 1010.9
20260507090016 64 0.0 0.0 0.00 0.00 0.00 93 1010.7
20260507085016 64 0.0 0.0 0.00 0.00 0.00 93 1011.0
20260507084016 64 0.0 0.0 0.00 0.00 0.00 93 1011.1
20260507083516 64 0.0 0.0 0.00 0.00 0.00 93 1011.1
20260507082516 65 0.0 0.0 0.00 0.00 0.00 93 1011.2
20260507081515 65 0.0 0.0 0.00 0.00 0.00 93 1011.3
20260507080516 65 0.0 0.0 0.00 0.00 0.00 92 1011.2
20260507075516 65 0.0 0.0 0.00 0.00 0.00 93 1011.3
20260507074536 65 0.0 0.0 0.00 0.00 0.00 93 1011.5
20260507073516 65 0.0 0.0 0.00 0.00 0.00 92 1011.2
20260507072515 66 0.0 0.0 0.00 0.00 0.00 92 1011.1
20260507071516 66 0.0 0.0 0.00 0.00 0.00 92 1010.9
20260507070516 66 0.0 0.0 0.00 0.00 0.00 92 1010.8
20260507065536 66 0.0 0.0 0.00 0.00 0.00 92 1011.0
20260507064516 66 0.0 0.0 0.00 0.00 0.00 92 1011.2
20260507063516 66 0.0 0.0 0.00 0.00 0.00 92 1011.5
20260507062516 66 0.0 0.0 0.00 0.00 0.00 92 1012.0
20260507061516 66 0.0 0.0 0.00 0.00 0.00 92 1012.3
20260507060516 66 0.0 0.0 0.00 0.00 0.00 91 1012.2
20260507055516 66 0.0 0.0 0.00 0.00 0.00 91 1012.1
20260507054516 67 0.0 0.0 0.00 0.00 0.00 91 1012.2
20260507053516 67 0.0 0.0 0.00 0.00 0.00 91 1012.8
20260507052516 67 0.0 0.0 0.00 0.00 0.00 91 1013.3
20260507051516 68 0.0 0.0 0.00 0.00 0.00 91 1012.8
20260507050515 68 0.0 0.0 0.00 0.00 0.00 91 1012.8
20260507045516 68 0.0 0.0 0.00 0.00 0.00 90 1012.8
20260507044516 69 0.0 0.0 0.00 0.00 0.00 90 1012.7
20260507043516 69 0.0 0.0 0.00 0.00 0.00 91 1012.5
20260507042516 69 0.0 0.0 0.00 0.00 0.00 90 1012.6
20260507041515 70 0.0 0.0 0.00 0.00 0.00 91 1013.0
20260507040516 70 0.0 0.0 0.00 0.00 0.00 91 1013.0
20260507035517 70 0.0 0.0 0.00 0.00 0.00 90 1012.9
20260507034537 70 0.0 0.0 0.00 0.00 0.00 90 1013.0
20260507033517 70 0.0 0.0 0.00 0.00 0.00 90 1012.8
20260507032517 70 0.0 0.0 0.00 0.00 0.00 90 1012.8
20260507031537 70 0.0 0.0 0.00 0.00 0.00 90 1012.8
20260507030517 71 0.0 0.0 0.00 0.00 0.00 89 1013.0
20260507025517 71 0.0 0.0 0.00 0.00 0.00 89 1012.8
20260507024517 71 0.0 0.0 0.00 0.00 0.00 88 1012.8
20260507023517 71 0.0 0.0 0.00 0.00 0.00 87 1012.5
20260507022516 71 0.0 0.0 0.00 0.00 0.00 87 1012.6
20260507021517 71 0.0 0.0 0.00 0.00 0.00 87 1012.6
20260507020517 71 0.0 0.0 0.00 0.00 0.00 87 1012.5
20260507015517 72 0.0 0.0 0.00 0.00 0.00 87 1012.4
20260507014517 72 0.0 0.0 0.00 0.00 0.00 87 1012.7
20260507013516 72 0.0 0.0 0.00 0.00 0.00 86 1012.7